New Delhi, India

7:16 PM IST on October 17, 2017 (GMT +0530)
Indira Gandhi International

Weather History for VIDP - August, 2013

Change the Weather History Date:

Wednesday, August 7, 2013

  Actual Average Record
Temperature  
Mean Temperature 81 °F -  
Max Temperature 84 °F 91 °F 102 °F (2000)
Min Temperature 78 °F 78 °F 77 °F (2008)
Cooling Degree Days 16    
Growing Degree Days 31 (Base 50)    
Moisture  
Dew Point 80 °F    
Average Humidity 94    
Maximum Humidity 100    
Minimum Humidity 84    
Precipitation  
Precipitation 0.00 in - - ()
Sea Level Pressure  
Sea Level Pressure 29.63 in    
Wind  
Wind Speed 2 mph ()    
Max Wind Speed 7 mph    
Max Gust Speed -    
Visibility 1.0 miles    
Events Rain    
Averages and records for this station are not official NWS values.
T = Trace of Precipitation, MM = Missing Value Source: Averaged Metar Reports

Daily Weather History Graph

Daily Weather History Graph

Search for Another Location

Airport or City:

Trip Planner

Search our weather history database for the weather conditions in past years. The results will help you decide how hot, cold, wet, or windy it might be!

Date:

Astronomy

Aug. 07, 2013 Rise Set
Actual Time 5:46 AM IST 7:07 PM IST
Civil Twilight 5:21 AM IST 7:32 PM IST
Nautical Twilight 4:51 AM IST 8:02 PM IST
Astronomical Twilight 4:19 AM IST 8:33 PM IST
Moon 6:01 AM IST (8/7) 7:09 PM IST (8/7)
Length of Visible Light 14h 11m
Length of Day
13h 21m
New Moon, 0% of the Moon is Illuminated
Aug 7
New Moon
Aug 14
First Quarter
Aug 21
Full
Aug 28
Last Quarter
Sep 5
New

Hourly Weather History & Observations

Time (IST) Temp. Heat Index Dew Point Humidity Pressure Visibility Wind Dir Wind Speed Gust Speed Precip Events Conditions
12:00 AM 78.8 °F - 78.8 °F 100% 29.65 in 0.6 mi South 4.6 mph - N/A   Scattered Clouds
12:30 AM 78.8 °F - 78.8 °F 100% 29.65 in 0.6 mi Calm Calm - N/A   Mostly Cloudy
1:00 AM 78.8 °F - 78.8 °F 100% 29.65 in 0.6 mi Calm Calm - N/A   Mostly Cloudy
1:30 AM 78.8 °F - 78.8 °F 100% 29.65 in 0.6 mi Calm Calm - N/A   Mostly Cloudy
2:00 AM 78.8 °F - 78.8 °F 100% 29.65 in 0.6 mi Calm Calm - N/A Rain Light Rain
2:30 AM 78.8 °F - 78.8 °F 100% 29.62 in 0.6 mi Calm Calm - N/A   Overcast
3:00 AM 78.8 °F - 78.8 °F 100% 29.62 in 0.6 mi Calm Calm - N/A   Overcast
3:30 AM 78.8 °F - 78.8 °F 100% 29.62 in 0.6 mi East 2.3 mph - N/A   Overcast
4:00 AM 78.8 °F - 78.8 °F 100% 29.59 in 0.6 mi Calm Calm - N/A   Overcast
4:30 AM 78.8 °F - 78.8 °F 100% 29.59 in 0.6 mi Calm Calm - N/A   Overcast
5:00 AM 78.8 °F - 78.8 °F 100% 29.59 in 0.6 mi Calm Calm - N/A   Overcast
5:30 AM 78.8 °F - 78.8 °F 100% 29.62 in 0.6 mi Calm Calm - N/A   Overcast
6:00 AM 78.8 °F - 78.8 °F 100% 29.62 in 0.6 mi Calm Calm - N/A   Overcast
6:30 AM 80.6 °F 89.3 °F 80.6 °F 100% 29.65 in 0.6 mi Calm Calm - N/A   Overcast
7:00 AM 80.6 °F 89.3 °F 80.6 °F 100% 29.65 in 0.5 mi Calm Calm - N/A   Overcast
7:30 AM 80.6 °F 89.3 °F 80.6 °F 100% 29.65 in 0.7 mi Calm Calm - N/A   Overcast
8:00 AM 80.6 °F 89.3 °F 80.6 °F 100% 29.65 in 0.7 mi East 3.5 mph - N/A   Overcast
8:30 AM 80.6 °F 89.3 °F 80.6 °F 100% 29.68 in 0.7 mi ESE 3.5 mph - N/A Rain Light Rain
9:00 AM 80.6 °F 89.3 °F 80.6 °F 100% 29.68 in 0.7 mi SSE 4.6 mph - N/A Rain Light Rain
9:30 AM 80.6 °F 89.3 °F 80.6 °F 100% 29.68 in 0.7 mi SSE 4.6 mph - N/A Rain Light Rain
10:00 AM 82.4 °F 94.0 °F 80.6 °F 94% 29.68 in 0.7 mi SW 4.6 mph - N/A   Overcast
10:30 AM 82.4 °F 94.0 °F 80.6 °F 94% 29.68 in 0.8 mi SW 4.6 mph - N/A   Overcast
11:00 AM 82.4 °F 94.0 °F 80.6 °F 94% 29.68 in 0.8 mi SE 3.5 mph - N/A   Overcast
11:30 AM 82.4 °F 94.0 °F 80.6 °F 94% 29.68 in 0.8 mi SSW 3.5 mph - N/A   Overcast
12:00 PM 82.4 °F 94.0 °F 80.6 °F 94% 29.68 in 0.8 mi ESE 4.6 mph - N/A   Overcast
1:00 PM 84.2 °F 98.3 °F 80.6 °F 89% 29.65 in 0.9 mi East 3.5 mph - N/A   Overcast
1:30 PM 84.2 °F 98.3 °F 80.6 °F 89% 29.65 in 1.1 mi WSW 3.5 mph - N/A   Overcast
2:00 PM 84.2 °F 98.3 °F 80.6 °F 89% 29.65 in 0.9 mi SE 3.5 mph - N/A   Overcast
2:30 PM 84.2 °F 98.3 °F 80.6 °F 89% 29.62 in 1.1 mi West 6.9 mph - N/A   Overcast
3:00 PM 84.2 °F 98.3 °F 80.6 °F 89% 29.62 in 1.4 mi WNW 6.9 mph - N/A   Mostly Cloudy
3:30 PM 84.2 °F 98.3 °F 80.6 °F 89% 29.62 in 1.4 mi West 5.8 mph - N/A   Mostly Cloudy
4:00 PM 84.2 °F 98.3 °F 80.6 °F 89% 29.59 in 1.6 mi WNW 5.8 mph - N/A   Mostly Cloudy
4:30 PM 84.2 °F 98.3 °F 80.6 °F 89% 29.59 in 1.6 mi West 4.6 mph - N/A   Mostly Cloudy
5:00 PM 84.2 °F 98.3 °F 80.6 °F 89% 29.59 in 1.6 mi West 3.5 mph - N/A   Mostly Cloudy
5:30 PM 84.2 °F 98.3 °F 80.6 °F 89% 29.56 in 1.6 mi WSW 3.5 mph - N/A   Mostly Cloudy
6:00 PM 84.2 °F 98.3 °F 80.6 °F 89% 29.56 in 1.6 mi SW 4.6 mph - N/A   Mostly Cloudy
6:30 PM 84.2 °F 98.3 °F 80.6 °F 89% 29.56 in 1.6 mi WSW 4.6 mph - N/A   Mostly Cloudy
7:00 PM 84.2 °F 98.3 °F 80.6 °F 89% 29.59 in 1.6 mi SW 4.6 mph - N/A   Scattered Clouds
7:30 PM 84.2 °F 98.3 °F 80.6 °F 89% 29.59 in 1.6 mi SSW 4.6 mph - N/A   Scattered Clouds
8:00 PM 84.2 °F 98.3 °F 80.6 °F 89% 29.62 in 1.6 mi Calm Calm - N/A   Mostly Cloudy
8:30 PM 84.2 °F 98.3 °F 80.6 °F 89% 29.62 in 1.6 mi Calm Calm - N/A   Mostly Cloudy
9:00 PM 84.2 °F 98.3 °F 80.6 °F 89% 29.62 in 1.6 mi Calm Calm - N/A   Mostly Cloudy
9:30 PM 84.2 °F 96.1 °F 78.8 °F 84% 29.62 in 1.5 mi Calm Calm - N/A   Mostly Cloudy
10:00 PM 84.2 °F 96.1 °F 78.8 °F 84% 29.65 in 1.5 mi Calm Calm - N/A   Mostly Cloudy
10:30 PM 84.2 °F 96.1 °F 78.8 °F 84% 29.65 in 1.4 mi Calm Calm - N/A   Mostly Cloudy
11:00 PM 82.4 °F 92.4 °F 78.8 °F 89% 29.65 in 1.2 mi Calm Calm - N/A   Mostly Cloudy
11:30 PM 82.4 °F 92.4 °F 78.8 °F 89% 29.65 in 1.1 mi Calm Calm - N/A   Mostly Cloudy